Wetbulb
61.64 61.47 61.20 60.70 60.73 60.24 60.50 60.39 59.95 59.49 59.04 58.82 59.13 59.35 60.09 59.86 57.57 48.61 46.14 52.31 60.46 66.74 64.94 49.82 47.56 47.01 46.37 43.89 45.42 43.86 34.97 31.60 32.78 35.47 36.20 40.05 38.55 41.94 43.00 41.41 41.22 42.77 41.40 42.45 43.79
60.96 60.92 60.63 59.39 60.25 60.00 60.29 59.75 59.38 59.03 58.37 58.22 58.44 58.88 59.55 59.15 48.94 45.65 55.70 65.60 66.06 65.82 51.17 47.12 45.55 45.94 42.04 41.71 42.58 39.21 33.64 34.71 38.09 38.17 37.02 39.87 39.32 39.47 39.48 39.86 39.70 40.67 43.55 43.64 42.80
60.26 59.98 59.68 59.40 60.16 59.85 59.69 59.57 58.74 58.46 58.37 58.16 58.40 59.17 59.21 56.39 42.97 43.45 61.20 64.85 65.62 60.43 52.64 48.67 46.47 44.49 40.45 40.30 39.84 38.62 34.88 39.26 40.34 40.81 41.63 39.85 38.37 41.05 38.81 37.55 39.56 38.64 41.29 42.16 41.01
60.39 59.82 59.06 59.03 59.87 59.37 59.09 59.66 59.01 58.54 58.77 59.21 59.67 59.79 59.11 47.64 35.48 45.20 62.50 61.97 62.99 53.67 49.36 46.49 44.40 40.46 37.37 37.84 39.33 37.44 40.42 41.42 42.01 42.64 41.20 38.65 41.40 38.77 39.47 38.72 42.28 42.44 43.08 41.51 39.77
59.48 59.25 58.87 58.62 59.18 59.29 58.94 59.32 59.64 59.48 59.42 59.58 59.72 59.39 49.54 41.41 40.85 49.65 59.30 55.17 53.07 50.46 46.79 44.65 42.27 39.43 36.37 36.79 38.18 37.25 39.00 42.05 42.54 42.25 41.67 42.43 39.59 39.64 39.70 41.59 43.29 43.64 42.40 40.10 39.19
59.26 59.04 58.66 59.14 59.27 59.27 58.95 59.02 58.67 58.36 58.28 58.94 59.45 58.17 43.72 38.24 46.01 49.12 48.59 50.31 51.01 49.43 45.71 45.02 42.13 41.94 39.46 37.37 36.52 37.55 39.34 40.16 42.06 41.83 42.02 40.12 38.72 39.48 39.84 42.09 42.72 42.35 40.43 39.63 38.74
58.73 58.55 58.59 59.08 59.25 59.05 58.92 58.66 58.15 57.26 57.16 58.47 58.78 48.02 44.18 41.71 47.08 48.28 49.00 47.85 49.48 49.11 44.88 45.96 44.86 41.96 39.85 37.26 40.37 39.14 35.85 37.42 39.09 40.74 40.20 40.40 35.40 36.46 39.89 41.47 41.53 41.53 40.65 39.58 38.80
58.94 58.32 58.68 58.81 58.85 58.64 58.42 58.42 57.61 56.73 57.10 57.66 58.26 44.94 40.27 48.51 47.25 48.26 48.04 47.59 48.53 49.10 47.98 46.11 45.19 42.59 39.79 39.30 37.91 33.89 32.44 29.30 35.03 39.96 39.85 38.18 31.17 36.00 39.24 39.61 39.37 40.64 40.34 39.42 38.20
58.81 58.52 58.41 58.48 58.45 58.39 58.15 58.22 57.30 56.76 57.89 56.81 46.55 43.06 39.14 51.95 46.73 47.36 46.07 45.69 46.67 47.26 47.38 49.06 44.37 38.40 37.82 33.04 30.33 30.60 25.60 26.88 32.38 39.54 38.37 36.00 32.31 36.16 38.61 38.58 37.88 39.34 39.30 38.46 37.19
58.81 58.39 58.27 58.26 58.15 57.83 57.87 57.96 56.92 53.60 51.71 49.65 47.26 42.43 43.97 42.67 46.41 47.53 46.31 46.63 44.62 44.30 43.64 41.88 37.44 33.87 32.46 31.00 25.48 25.77 25.39 26.87 28.02 33.81 36.72 34.24 34.15 36.50 38.43 37.62 37.00 37.34 38.03 36.95 36.87
58.56 58.04 57.95 57.93 57.95 57.21 52.50 48.84 44.95 43.94 45.42 40.30 40.46 40.72 43.16 46.65 47.45 46.65 46.13 44.76 43.86 40.89 35.37 37.48 32.66 28.02 29.13 30.28 30.95 29.82 26.78 27.02 30.02 34.65 32.25 30.47 31.19 34.00 35.21 35.95 34.99 35.20 35.89 35.38 36.05
58.12 57.76 57.73 57.65 57.77 55.54 49.03 45.15 43.84 43.73 39.92 43.84 44.11 43.55 44.88 45.26 42.73 45.75 46.24 40.63 39.68 34.59 36.50 34.99 29.42 33.05 35.50 34.35 32.13 30.52 27.54 27.72 31.84 34.01 31.67 30.19 30.85 32.96 34.18 33.96 35.18 34.96 35.06 34.78 34.57
57.68 57.56 57.35 57.02 56.62 51.12 46.51 45.32 49.04 47.88 39.97 42.81 43.96 43.33 43.25 44.86 40.83 42.80 43.32 40.27 37.07 34.51 33.69 31.28 33.26 37.23 35.48 32.61 31.10 28.76 27.19 27.02 28.99 31.79 31.03 29.66 28.42 29.98 33.67 33.42 34.92 35.74 36.34 35.89 34.95
57.39 57.39 56.94 56.28 52.19 48.62 45.95 49.35 49.22 48.41 37.84 40.41 42.71 44.42 44.83 43.55 40.50 44.84 43.18 40.63 37.87 33.32 33.88 32.76 36.11 34.73 33.34 31.69 30.37 27.38 31.91 31.66 30.10 27.06 25.03 29.01 23.99 27.55 30.94 32.63 32.50 34.23 34.63 34.93 34.44
56.90 57.06 56.60 54.23 48.81 46.31 47.89 49.52 48.80 46.48 27.53 40.64 42.63 47.71 45.41 41.61 41.00 44.22 43.30 40.72 34.83 34.94 35.43 33.36 32.92 32.27 32.27 32.10 32.00 31.55 33.00 31.01 29.28 26.58 24.21 26.69 24.17 27.75 30.26 31.34 33.17 33.40 32.55 33.76 34.07
56.47 56.53 55.76 50.53 48.72 47.81 49.31 49.07 47.96 39.07 26.43 37.85 42.42 41.23 40.21 41.44 42.25 43.63 40.49 41.61 39.16 36.34 35.94 33.76 36.01 34.21 32.73 34.08 33.35 35.17 31.09 31.06 29.35 27.79 22.85 25.15 24.59 26.16 28.15 31.61 31.37 32.68 32.44 33.30 33.13
56.20 55.95 53.63 50.84 46.90 48.63 49.35 47.72 39.30 30.48 39.38 36.97 37.47 39.64 37.38 37.10 39.42 39.72 35.73 33.41 32.76 31.57 30.41 33.85 33.84 34.12 34.56 31.70 33.42 32.52 27.74 23.67 22.05 22.06 22.29 26.51 24.21 27.85 31.30 33.33 32.92 32.03 32.19 33.18 32.95
55.69 54.84 53.93 50.84 49.27 48.94 48.00 42.25 31.93 35.97 36.37 39.63 38.65 38.43 35.08 36.72 36.45 38.10 33.80 31.44 32.52 32.72 29.17 27.12 28.79 32.33 34.06 31.27 29.24 28.21 27.33 23.39 19.62 19.13 21.11 25.81 22.48 28.58 32.30 32.31 31.95 32.81 32.73 33.30 32.59
54.59 51.34 51.69 50.69 48.99 49.07 44.05 34.58 33.83 36.51 38.60 37.38 37.81 33.78 34.15 36.30 34.72 35.88 30.29 31.29 31.56 32.47 30.29 27.91 29.83 34.37 33.25 32.82 32.79 28.02 26.13 28.43 24.12 21.15 20.35 23.18 26.74 31.36 31.27 32.41 32.71 32.70 32.97 32.43 31.73
49.07 49.49 50.31 49.72 48.52 45.57 39.51 36.76 36.00 38.26 39.07 37.62 33.94 34.81 31.67 33.12 33.58 33.86 32.75 33.81 33.40 35.03 33.42 31.14 27.87 33.06 33.16 32.91 31.61 29.22 31.61 25.63 24.94 20.50 18.85 21.51 22.32 25.71 29.65 31.88 32.64 32.50 32.80 33.29 33.04
49.56 46.48 50.84 49.10 48.90 42.60 37.48 35.49 37.19 39.36 39.73 37.58 35.77 34.09 34.31 32.65 32.77 32.38 33.72 34.73 35.51 34.26 33.04 31.96 30.29 31.17 33.21 29.97 29.90 28.43 26.96 26.27 25.98 24.14 20.53 18.07 22.63 30.65 31.70 33.47 33.08 32.04 33.09 32.97 32.67
46.66 42.67 50.31 49.86 43.04 37.13 36.21 37.45 40.50 37.94 38.59 38.32 36.15 36.48 34.79 33.94 32.09 32.91 33.77 35.38 36.71 36.21 32.49 32.40 29.11 25.28 30.72 32.34 30.30 29.28 29.21 28.18 23.54 25.39 25.80 23.24 25.59 32.23 32.69 33.55 33.53 31.66 32.37 32.03 32.83
43.23 44.02 50.03 48.12 38.03 37.90 37.37 38.25 38.61 37.57 37.76 37.41 36.66 37.90 35.52 33.98 32.43 34.29 35.13 38.34 37.19 36.28 33.90 33.67 30.21 26.03 28.49 28.73 30.19 26.76 29.53 30.50 31.56 30.83 26.52 24.91 25.38 31.95 29.91 31.19 31.60 31.57 32.46 32.21 31.73
44.20 40.88 43.99 42.93 40.68 38.86 37.02 38.08 37.35 38.56 38.23 38.51 37.49 36.57 34.13 32.95 34.63 33.21 34.17 37.86 36.61 36.27 42.28 39.72 31.91 30.48 27.76 30.16 32.16 29.96 31.97 31.71 33.01 28.23 26.84 28.34 30.03 34.29 34.59 33.22 31.30 32.54 31.50 29.92 29.33
44.15 41.09 40.42 38.97 40.33 37.82 38.40 38.97 37.49 36.81 37.06 37.43 35.38 36.32 35.33 32.55 32.49 32.52 34.37 35.18 35.73 38.87 37.17 35.44 27.92 28.92 32.51 34.03 33.46 33.65 33.47 34.62 32.10 33.10 29.59 31.77 30.77 34.96 33.99 32.33 31.94 32.09 29.75 27.90 26.79
42.35 42.18 40.80 39.24 39.56 36.96 38.78 37.99 38.57 38.70 37.43 36.08 35.12 37.79 35.77 34.36 37.14 35.32 36.12 35.81 35.96 32.47 32.39 31.93 28.46 28.68 26.71 31.71 32.33 30.78 33.42 33.85 33.96 34.18 33.78 33.65 32.17 34.78 30.89 32.59 32.87 27.83 26.35 26.12 26.50
47.38 43.64 43.17 41.23 37.48 36.48 38.16 39.60 39.42 40.00 41.17 40.73 38.42 37.01 35.19 37.41 39.68 39.35 39.84 38.49 38.39 35.38 31.43 31.13 30.29 29.76 29.94 29.58 29.80 28.11 31.78 32.82 32.06 32.80 33.47 29.55 32.75 32.26 30.64 32.05 29.77 27.13 26.12 24.83 24.25
MSLP
1019.91 1019.51 1019.13 1018.82 1018.36 1018.09 1017.84 1017.63 1017.43 1017.28 1017.25 1017.23 1017.08 1016.89 1016.66 1016.42 1016.05 1015.86 1016.04 1016.49 1015.88 1015.10 1014.82 1014.61 1014.19 1014.41 1014.46 1015.33 1015.82 1016.56 1018.13 1019.58 1019.46 1019.32 1018.93 1018.91 1019.15 1019.39 1019.78 1020.35 1021.03 1021.52 1022.08 1022.72 1022.94
1020.05 1019.62 1019.20 1018.87 1018.40 1018.07 1017.81 1017.63 1017.43 1017.34 1017.30 1017.20 1017.03 1016.86 1016.67 1016.55 1016.36 1016.38 1016.42 1015.90 1015.42 1015.03 1014.89 1015.01 1015.01 1014.98 1015.61 1016.17 1016.65 1017.49 1018.80 1019.28 1018.93 1018.93 1019.07 1018.97 1019.20 1019.60 1020.19 1020.86 1021.61 1022.11 1022.60 1022.94 1023.11
1020.00 1019.60 1019.21 1018.88 1018.48 1018.17 1017.89 1017.69 1017.49 1017.34 1017.25 1017.09 1016.95 1016.80 1016.64 1016.58 1016.59 1016.79 1016.16 1015.71 1015.22 1014.94 1014.98 1015.17 1015.27 1015.56 1016.30 1016.68 1017.51 1018.07 1018.86 1019.14 1018.97 1018.97 1018.91 1019.17 1019.46 1019.76 1020.34 1020.93 1021.24 1021.94 1022.59 1023.08 1023.45
1019.99 1019.61 1019.31 1018.95 1018.57 1018.27 1017.98 1017.75 1017.55 1017.37 1017.26 1017.10 1016.89 1016.67 1016.47 1016.41 1017.29 1016.77 1016.27 1015.80 1015.39 1015.12 1015.04 1015.45 1015.66 1016.31 1017.09 1017.61 1017.91 1018.40 1018.72 1018.82 1018.80 1018.86 1018.99 1019.29 1019.53 1019.86 1020.32 1020.51 1020.87 1021.78 1022.55 1023.36 1023.82
1020.15 1019.79 1019.42 1019.12 1018.76 1018.39 1018.05 1017.79 1017.60 1017.51 1017.34 1017.09 1016.84 1016.63 1016.48 1016.94 1017.45 1016.74 1016.47 1016.08 1015.67 1015.66 1016.07 1016.19 1016.52 1016.93 1017.62 1017.94 1018.11 1018.48 1018.81 1018.83 1018.83 1018.97 1019.16 1019.33 1019.65 1020.01 1020.33 1020.85 1021.53 1022.21 1022.90 1023.60 1024.05
1020.35 1019.90 1019.50 1019.10 1018.76 1018.43 1018.12 1017.88 1017.69 1017.56 1017.37 1017.15 1016.87 1016.58 1016.60 1017.39 1017.10 1017.01 1016.80 1016.44 1016.45 1016.42 1016.68 1016.65 1017.06 1017.14 1017.69 1018.18 1018.41 1018.72 1018.95 1019.01 1019.08 1019.19 1019.29 1019.53 1019.85 1020.18 1020.52 1021.20 1022.05 1022.57 1023.21 1023.74 1024.01
1020.50 1020.02 1019.60 1019.19 1018.79 1018.44 1018.13 1017.92 1017.77 1017.64 1017.48 1017.25 1016.94 1016.71 1017.17 1017.61 1017.15 1017.05 1016.98 1016.90 1016.89 1016.83 1016.92 1017.04 1017.18 1017.40 1017.98 1018.56 1018.82 1019.01 1019.35 1019.40 1019.32 1019.43 1019.59 1019.73 1020.09 1020.40 1020.51 1021.32 1022.15 1022.89 1023.66 1024.01 1024.22
1020.55 1020.20 1019.74 1019.21 1018.76 1018.43 1018.20 1017.99 1017.81 1017.66 1017.47 1017.29 1017.05 1016.96 1017.49 1017.17 1017.12 1017.07 1017.06 1016.98 1016.95 1016.90 1016.98 1017.02 1017.12 1017.66 1018.52 1018.85 1019.38 1019.86 1019.93 1020.33 1019.72 1019.81 1019.94 1020.08 1020.33 1020.05 1020.64 1021.39 1022.09 1022.80 1023.18 1023.77 1024.13
1020.64 1020.19 1019.71 1019.23 1018.81 1018.45 1018.15 1017.91 1017.71 1017.53 1017.41 1017.21 1017.20 1017.29 1017.82 1017.25 1017.33 1017.38 1017.38 1017.44 1017.23 1017.06 1017.07 1017.18 1017.57 1018.96 1019.36 1019.93 1020.60 1021.06 1021.20 1021.08 1020.31 1020.03 1020.33 1020.69 1020.54 1020.39 1020.93 1021.48 1022.10 1022.73 1023.22 1023.66 1023.99
1020.74 1020.17 1019.66 1019.21 1018.81 1018.36 1017.97 1017.81 1017.57 1017.31 1017.31 1017.28 1017.62 1018.13 1018.06 1018.40 1017.99 1017.71 1017.50 1017.48 1017.52 1017.48 1017.65 1018.18 1019.04 1020.09 1020.78 1020.93 1021.74 1021.81 1021.69 1021.37 1021.10 1020.49 1020.65 1020.95 1020.64 1020.69 1020.89 1021.35 1021.93 1022.57 1023.21 1023.77 1024.06
1020.87 1020.32 1019.78 1019.30 1018.84 1018.39 1017.86 1017.87 1018.52 1018.58 1018.52 1019.04 1019.09 1018.98 1018.80 1018.49 1018.20 1017.90 1017.86 1017.81 1017.90 1018.35 1019.18 1019.62 1020.39 1021.27 1021.36 1021.37 1021.38 1021.53 1021.74 1021.66 1020.96 1020.50 1020.66 1020.66 1020.69 1020.28 1020.57 1021.14 1021.87 1022.51 1022.97 1023.33 1023.47
1020.96 1020.44 1019.89 1019.36 1018.91 1018.65 1018.67 1019.74 1020.66 1021.10 1020.20 1019.38 1019.11 1018.96 1018.83 1018.86 1018.61 1018.25 1017.99 1018.49 1018.82 1019.65 1019.85 1020.26 1020.76 1020.87 1020.92 1021.07 1021.19 1021.29 1021.38 1021.31 1020.80 1020.61 1020.96 1020.54 1020.36 1020.14 1020.33 1020.64 1021.15 1021.91 1022.64 1023.03 1023.32
1021.07 1020.55 1019.89 1019.37 1018.91 1019.14 1020.14 1020.82 1020.81 1020.69 1020.38 1019.63 1019.13 1018.95 1018.91 1018.92 1019.01 1018.86 1018.86 1019.10 1019.56 1020.05 1020.48 1020.61 1020.84 1020.64 1020.80 1021.09 1021.22 1021.08 1021.34 1021.41 1021.71 1021.11 1020.97 1020.86 1020.26 1019.95 1019.95 1020.27 1020.64 1021.24 1021.86 1022.45 1022.67
1021.18 1020.62 1020.01 1019.25 1019.41 1020.24 1020.78 1020.93 1020.83 1020.79 1020.60 1020.04 1019.20 1018.82 1018.87 1018.89 1019.13 1018.96 1019.14 1019.55 1019.86 1020.49 1020.71 1020.93 1020.68 1020.69 1020.70 1020.88 1021.21 1021.22 1021.02 1021.54 1021.75 1022.04 1021.74 1021.23 1020.93 1019.87 1019.64 1019.95 1020.40 1020.82 1021.41 1021.89 1022.42
1021.27 1020.71 1020.23 1019.63 1020.25 1020.78 1021.20 1020.86 1020.79 1020.81 1021.07 1020.18 1019.21 1018.68 1018.92 1019.38 1019.67 1019.42 1019.47 1019.42 1020.30 1020.79 1021.03 1021.07 1020.84 1020.73 1020.69 1020.82 1021.17 1021.20 1021.21 1021.55 1021.76 1022.11 1022.25 1021.76 1021.68 1019.38 1019.51 1019.58 1019.73 1020.06 1020.84 1021.33 1022.05
1021.33 1020.84 1020.41 1020.27 1020.76 1021.17 1021.01 1020.85 1020.95 1021.22 1020.58 1020.03 1019.58 1019.58 1019.61 1019.81 1019.88 1019.79 1019.93 1020.00 1020.45 1020.81 1021.10 1021.14 1021.01 1021.00 1020.79 1020.83 1021.13 1021.31 1021.42 1021.76 1022.28 1022.53 1022.48 1021.70 1021.64 1019.45 1019.13 1018.79 1019.17 1019.60 1020.07 1020.73 1021.51
1021.36 1020.89 1020.53 1020.74 1021.27 1021.12 1021.12 1021.13 1021.60 1021.52 1020.82 1020.53 1020.27 1020.28 1020.49 1020.59 1020.52 1020.69 1021.00 1021.25 1021.63 1021.70 1022.10 1021.69 1021.27 1021.02 1021.03 1021.10 1021.26 1021.68 1022.22 1022.64 1023.08 1023.10 1022.62 1021.95 1021.70 1019.10 1018.33 1018.26 1018.54 1019.10 1019.67 1020.31 1020.92
1021.20 1020.84 1020.89 1021.02 1021.15 1021.14 1021.41 1021.59 1021.61 1021.07 1020.87 1020.73 1020.70 1020.71 1020.93 1021.04 1021.09 1021.18 1021.60 1022.16 1022.19 1022.45 1022.95 1022.91 1021.54 1021.21 1021.19 1021.44 1021.85 1022.43 1023.22 1023.95 1024.37 1024.35 1023.51 1022.36 1021.20 1018.65 1018.06 1018.11 1018.43 1018.82 1019.31 1019.83 1020.59
1021.12 1021.13 1021.17 1021.29 1021.22 1021.30 1021.66 1022.25 1021.46 1021.22 1021.02 1021.00 1020.96 1021.08 1021.19 1021.24 1021.45 1021.51 1021.80 1022.28 1022.45 1022.58 1023.04 1023.22 1022.27 1021.35 1021.39 1021.58 1022.08 1022.64 1023.33 1023.81 1024.33 1024.59 1024.38 1022.18 1020.50 1018.57 1018.28 1018.29 1018.56 1018.99 1019.35 1019.80 1020.43
1021.88 1021.71 1021.54 1021.33 1021.30 1021.55 1022.16 1022.09 1021.64 1021.25 1021.18 1021.26 1021.37 1021.46 1021.57 1021.51 1021.75 1021.92 1021.98 1021.97 1022.36 1022.54 1022.75 1023.33 1023.16 1021.99 1021.89 1022.04 1022.35 1022.59 1023.12 1023.87 1024.63 1024.97 1024.39 1022.21 1021.19 1019.18 1018.64 1018.53 1018.75 1019.22 1019.55 1019.85 1020.24
1022.16 1022.08 1021.52 1021.44 1021.51 1021.74 1022.30 1021.92 1021.50 1021.15 1021.17 1021.43 1021.42 1021.62 1021.69 1021.80 1021.95 1022.18 1021.97 1021.85 1022.01 1022.59 1022.93 1023.42 1024.03 1023.00 1022.60 1022.27 1022.22 1022.90 1023.28 1023.78 1024.34 1024.42 1024.30 1023.07 1020.21 1018.40 1018.38 1018.46 1018.86 1019.42 1019.89 1020.53 1020.77
1022.86 1022.72 1021.87 1021.83 1022.20 1022.38 1022.25 1021.66 1021.34 1021.35 1021.39 1021.47 1021.55 1021.61 1021.76 1021.88 1022.13 1022.20 1021.94 1021.52 1021.75 1022.28 1023.12 1023.51 1024.18 1023.99 1022.68 1022.15 1022.11 1022.36 1022.72 1023.22 1023.82 1023.76 1023.66 1023.24 1019.07 1018.21 1018.09 1018.38 1018.88 1019.62 1020.32 1020.83 1020.98
1023.97 1023.00 1021.86 1021.76 1022.55 1022.67 1022.14 1021.68 1021.43 1021.52 1021.56 1021.69 1021.68 1021.67 1021.77 1022.12 1022.36 1022.02 1021.80 1021.46 1021.82 1022.43 1022.93 1023.68 1024.27 1024.09 1022.76 1022.86 1022.44 1022.37 1022.25 1022.28 1022.32 1022.51 1022.21 1022.44 1018.78 1018.19 1018.38 1018.75 1019.30 1019.98 1020.49 1020.92 1021.29
1024.35 1023.94 1022.57 1022.45 1022.71 1022.45 1022.34 1021.82 1021.58 1021.34 1021.55 1021.67 1021.77 1021.83 1022.11 1022.23 1022.19 1022.14 1021.98 1021.66 1021.97 1022.32 1022.58 1023.26 1023.94 1023.95 1023.31 1022.38 1022.11 1022.06 1021.63 1021.54 1021.81 1021.79 1020.92 1019.45 1017.72 1018.27 1018.42 1018.96 1019.61 1020.34 1021.03 1021.50 1021.85
1024.60 1024.36 1024.19 1023.66 1023.01 1022.58 1022.35 1021.85 1021.66 1021.57 1021.68 1021.69 1021.80 1021.78 1022.05 1022.31 1022.18 1022.15 1021.91 1021.80 1022.03 1022.20 1022.74 1023.34 1023.62 1023.37 1022.38 1021.92 1021.62 1020.84 1020.26 1020.48 1020.53 1019.53 1020.37 1016.59 1018.31 1016.91 1018.45 1019.12 1019.96 1020.80 1021.61 1022.03 1022.34
1024.52 1024.50 1024.42 1024.00 1023.35 1022.85 1022.35 1021.86 1021.59 1021.23 1021.45 1021.63 1021.77 1021.17 1021.56 1021.70 1021.16 1021.35 1021.61 1021.92 1022.05 1022.63 1022.92 1023.31 1023.01 1022.99 1021.74 1021.41 1020.72 1019.84 1019.23 1018.52 1018.30 1017.99 1018.41 1017.91 1017.28 1018.10 1019.00 1019.59 1020.51 1021.42 1021.88 1022.35 1022.86
1024.37 1024.28 1023.87 1023.92 1023.63 1023.25 1022.40 1021.43 1021.04 1021.07 1020.57 1020.61 1020.90 1021.21 1021.07 1020.37 1020.28 1020.44 1020.83 1021.16 1021.27 1021.77 1022.64 1023.00 1022.92 1022.91 1020.98 1020.51 1020.16 1018.48 1016.44 1016.56 1016.70 1016.71 1017.02 1017.93 1017.24 1018.33 1019.65 1020.70 1021.58 1022.12 1022.42 1022.93 1023.62
Wind_Speed
15 15 15 14 14 12 8 6 4 4 3 4 5 5 7 9 7 5 9 5 8 16 9 7 5 7 5 4 5 3 6 3 1 5 3 0 2 1 2 5 3 4 3 2 3
15 15 15 15 14 11 8 6 5 4 3 3 4 5 7 8 2 8 3 12 14 11 4 7 7 7 5 4 5 6 4 3 3 2 2 1 2 4 2 3 2 2 2 3 5
17 17 17 15 14 11 8 7 5 4 4 3 3 5 7 4 3 5 11 15 15 10 1 1 1 3 6 4 6 3 3 3 1 1 3 3 0 2 5 4 6 6 5 1 4
18 19 17 15 15 12 9 7 6 5 5 5 6 7 8 1 3 5 14 15 13 8 4 7 6 4 4 5 4 6 3 3 3 1 3 3 3 1 5 3 5 7 5 3 5
19 19 18 15 14 12 10 8 7 6 6 7 9 10 2 7 2 6 13 12 6 6 8 4 7 2 4 3 3 5 1 1 2 2 1 3 2 4 4 5 7 7 6 6 5
19 19 18 16 15 13 10 8 7 7 8 8 10 7 5 7 3 7 9 6 6 5 6 7 3 1 5 3 4 1 1 1 1 1 1 2 1 1 1 7 6 6 6 5 4
21 20 18 16 13 12 11 9 8 8 8 8 10 3 9 2 2 6 7 3 4 3 3 3 2 4 2 3 2 2 3 4 2 1 1 0 3 5 3 8 7 5 4 4 2
22 20 17 15 14 12 10 9 8 8 9 7 7 4 3 3 1 4 6 3 5 3 2 2 3 5 5 1 6 5 5 5 2 2 1 3 7 3 4 8 8 6 6 4 2
21 20 18 17 14 11 9 8 7 7 7 7 3 4 2 5 5 5 2 3 5 3 3 3 6 4 7 4 5 8 1 2 9 3 1 2 7 2 4 6 7 7 6 5 4
20 20 19 17 14 12 9 4 6 5 3 2 2 4 6 5 5 6 4 3 3 3 5 8 6 5 6 6 0 3 3 4 5 3 4 4 13 7 7 9 9 7 7 6 5
19 19 19 17 14 13 5 4 6 5 10 4 1 2 4 8 3 4 4 4 4 9 4 5 8 2 2 1 1 2 3 5 5 3 4 5 8 12 6 5 6 7 7 7 7
19 19 18 16 13 9 5 6 2 2 5 2 0 2 2 2 5 8 5 5 6 4 4 6 2 3 3 2 1 3 3 5 6 3 1 5 10 4 3 2 6 9 8 8 5
20 19 19 17 7 6 5 3 1 1 5 3 1 1 3 3 2 7 5 2 5 4 4 4 2 4 1 2 5 3 4 3 5 6 2 6 5 2 2 2 3 5 5 6 10
19 19 18 18 6 1 3 4 2 1 5 5 4 3 3 1 2 1 2 2 5 2 1 1 3 2 2 1 2 5 2 4 6 1 3 3 5 5 3 5 4 7 8 8 8
18 19 16 10 3 4 3 2 1 3 4 1 4 1 4 4 3 5 3 4 3 3 3 3 3 3 2 2 2 8 3 4 2 1 2 1 2 7 1 5 7 8 9 9 8
18 18 13 4 3 1 2 2 3 8 5 3 2 6 4 5 6 6 5 7 1 2 3 3 2 2 2 3 2 6 3 2 3 2 2 2 4 7 5 5 2 2 4 8 7
18 17 3 1 0 0 2 3 7 4 2 1 2 3 1 4 5 6 5 7 4 5 7 6 2 2 1 3 2 8 6 5 6 5 5 2 1 10 4 5 3 1 3 6 7
19 7 3 2 1 2 3 6 2 2 3 1 1 3 1 4 1 5 2 2 2 3 3 3 8 1 1 1 2 2 2 4 5 3 6 4 7 7 3 1 2 3 4 5 7
12 3 2 0 3 2 6 3 5 4 2 1 1 2 3 0 1 3 0 4 3 2 2 2 6 2 1 1 4 2 0 2 1 1 2 4 8 7 2 5 5 7 5 7 6
2 2 2 1 2 4 5 5 3 2 3 1 3 2 2 3 3 3 2 3 4 5 2 4 6 2 1 1 1 2 4 1 2 4 6 6 6 8 4 6 6 7 6 8 6
3 4 1 2 2 5 3 6 4 3 3 5 5 3 5 2 2 2 4 3 5 5 3 4 4 6 2 4 5 1 1 1 2 4 4 5 7 6 6 5 7 2 3 5 6
2 3 2 1 3 1 2 4 2 4 1 4 2 5 6 5 3 4 6 6 7 7 5 5 4 5 12 2 2 2 4 6 5 3 4 2 12 4 6 4 6 5 4 5 5
2 3 1 2 1 2 3 2 3 4 4 4 4 6 2 4 3 6 3 2 7 7 7 5 2 6 7 3 1 3 5 6 2 2 11 5 9 2 4 5 4 5 3 5 6
2 4 4 4 0 4 2 4 3 2 2 3 2 2 2 3 4 3 3 2 6 5 3 5 4 9 9 8 4 6 8 7 9 7 7 20 26 16 10 7 6 2 3 5 6
2 2 2 4 3 1 3 2 3 3 3 3 2 7 7 4 3 6 5 3 3 4 5 6 7 7 13 15 10 18 20 16 18 20 16 32 17 22 6 3 5 2 4 4 5
2 2 2 3 3 2 2 4 6 3 7 5 6 4 8 7 10 7 5 5 7 2 7 4 6 3 7 13 18 21 20 23 22 24 22 26 29 5 3 4 3 3 2 3 6
0 2 4 2 1 1 5 6 4 4 5 3 8 4 5 17 10 7 7 5 6 9 9 7 5 3 13 2 5 14 18 20 6 4 13 16 13 7 3 2 1 1 3 4 4
Wind_Direction
6 5 2 355 352 351 353 356 346 332 328 326 318 322 331 341 348 40 37 278 303 309 327 307 8 8 39 53 39 98 61 82 142 160 208 190 135 47 104 103 51 15 93 135 349
6 6 4 359 1 360 359 4 356 353 2 359 333 321 326 340 55 43 266 326 330 339 7 22 1 2 42 20 23 68 83 163 214 172 187 193 168 150 123 108 96 67 95 63 26
7 6 6 7 9 13 14 18 28 32 41 29 338 325 324 313 59 320 330 339 340 350 190 54 353 51 43 31 357 59 127 156 249 124 148 156 356 133 138 231 193 192 166 91 31
4 5 6 6 8 11 15 26 37 34 30 9 347 335 329 356 64 279 340 339 348 4 60 31 31 52 59 50 348 90 79 173 195 110 140 178 124 231 183 230 151 134 134 112 54
6 6 6 3 2 4 2 8 18 18 12 357 346 339 52 43 360 306 339 342 7 21 46 41 48 60 75 63 47 76 168 126 160 127 143 135 232 241 236 153 117 120 110 107 75
5 2 3 355 353 353 352 348 359 358 355 349 343 327 66 64 283 341 342 352 10 31 20 38 70 42 89 66 78 74 129 266 260 285 222 249 265 327 51 138 144 138 125 118 100
2 360 357 350 350 349 345 341 340 344 342 340 347 58 62 178 355 331 3 343 1 17 35 30 10 70 81 53 349 92 11 340 283 282 318 119 275 240 165 156 166 165 138 131 106
360 358 353 351 349 345 337 327 322 324 330 334 333 64 88 298 312 5 347 342 357 10 51 354 25 91 51 330 22 39 49 12 318 174 41 75 276 276 161 170 190 177 174 174 154
357 353 353 350 343 333 325 312 298 315 302 311 36 78 12 323 10 315 16 332 312 355 23 47 60 76 24 68 23 15 298 312 319 198 33 163 266 287 151 195 205 188 191 188 195
352 351 349 346 340 331 315 285 306 356 356 30 60 43 8 310 303 331 336 353 14 344 23 38 46 58 27 45 175 296 333 305 249 285 226 246 267 278 214 207 221 194 192 203 222
350 350 347 343 341 342 17 18 18 352 40 99 246 158 311 296 277 337 359 355 26 53 37 12 60 31 305 296 245 231 237 251 252 253 298 236 273 284 300 216 209 204 197 212 219
350 349 344 342 339 351 60 75 72 155 69 25 45 358 280 322 2 334 16 63 48 35 347 23 30 285 287 25 301 264 249 277 290 246 229 298 289 279 312 235 205 197 208 216 220
347 348 344 339 334 38 72 91 298 232 96 339 2 319 292 33 358 313 33 24 59 45 22 109 316 333 9 12 354 287 227 253 254 314 255 320 306 309 225 240 197 200 203 216 214
345 347 344 334 55 303 46 321 332 322 74 310 338 333 352 50 2 333 38 76 36 60 14 31 322 359 327 43 91 308 214 314 293 359 270 17 280 290 255 283 232 232 215 225 229
343 344 344 17 148 54 285 305 333 52 30 306 311 310 327 71 310 2 6 33 73 338 66 281 334 331 304 278 163 246 349 279 274 192 12 284 76 265 12 277 262 242 228 231 226
341 340 336 20 47 339 330 35 44 45 263 355 329 353 14 10 346 323 23 39 148 101 359 257 262 223 266 302 228 303 353 64 53 88 15 210 122 274 192 200 192 243 246 230 219
338 336 7 87 325 27 39 40 38 132 21 351 352 27 346 320 353 27 26 9 49 32 7 332 260 284 226 330 13 18 24 344 354 0 233 273 279 246 242 207 200 224 288 240 214
335 341 5 63 111 103 46 49 170 169 222 19 10 331 5 14 353 353 65 23 35 77 81 46 328 225 36 151 254 337 114 138 288 277 288 315 243 256 222 279 283 287 282 260 222
328 358 40 336 128 69 74 67 225 202 140 130 28 33 321 303 242 26 320 202 214 160 115 40 276 282 214 154 123 132 120 179 248 305 347 253 288 295 270 286 286 272 284 281 255
24 19 311 130 130 66 79 234 217 200 141 93 194 175 248 272 349 19 213 196 196 201 163 197 298 234 329 100 61 177 162 4 29 307 287 282 282 250 230 249 231 253 265 292 292
32 30 257 108 72 53 175 223 215 207 165 165 202 216 225 245 212 241 241 236 186 188 163 145 142 289 347 198 183 71 289 100 150 167 234 297 254 215 215 208 181 155 1 344 352
27 347 332 65 38 29 176 195 174 194 175 226 204 212 201 186 243 247 229 226 168 151 177 194 163 249 237 203 173 196 217 162 145 252 235 203 270 353 231 148 135 121 54 341 339
17 266 323 96 228 268 276 270 220 170 223 193 233 206 169 209 237 207 247 354 155 156 174 188 253 315 327 20 51 215 200 211 247 139 229 237 256 152 97 94 121 132 22 350 354
38 334 321 51 60 150 195 242 246 199 252 193 236 111 141 243 227 284 258 233 190 199 182 161 194 199 232 237 182 224 222 211 217 234 257 233 266 257 259 246 187 186 353 5 11
44 251 188 299 325 251 174 205 205 238 219 193 256 211 179 224 219 223 227 278 185 216 176 170 235 219 242 262 265 263 260 249 232 242 240 270 254 268 262 253 161 85 16 17 10
171 161 8 277 300 269 195 237 216 221 159 235 214 198 190 211 200 215 197 200 218 158 169 193 261 218 263 236 246 263 256 253 245 249 248 254 271 285 121 97 64 64 17 18 6
320 309 117 264 288 128 232 227 232 167 233 216 211 173 202 230 223 225 208 219 227 179 194 180 201 180 272 190 292 272 237 233 222 219 223 234 251 149 115 25 284 259 47 36 360